Regional Weather Roundup
Issued by NWS Wakefield, VA

Home | Current Version | Previous Version | Graphics & Text | Print | Product List | Glossary On
Versions: 1 2 3 4 5 6 7 8 9 10 11 12 13 14 15 16 17 18 19 20 21 22 23 24 25 26 27 28 29 30 31 32 33 34 35 36 37 38 39 40 41 42 43 44 45 46 47 48 49 50
000
ASUS41 KAKQ 180015
RWRAKQ

REGIONAL WEATHER ROUNDUP
NATIONAL WEATHER SERVICE WAKEFIELD VA
800 PM EDT TUE OCT 17 2017

Note: "fair" indicates few or no clouds below 12,000 feet with no
significant weather and/or obstructions to visibility. * = Denotes
station may not report precipitation (e.g., rain,snow,etc.),
thunder or fog.

VAZ042-051-052>054-056-180100-
NORTHERN VIRGINIA

CITY           SKY/WX    TMP DP  RH WIND       PRES   REMARKS
WASH NATIONAL  CLEAR     57  36  45 S7        30.31S
DULLES         CLEAR     49  37  63 S5        30.30R
FORT BELVOIR   CLEAR     46  42  85 CALM      30.31R
QUANTICO       CLEAR     51  46  83 W5        30.33R
FREDERICKSBRG* CLEAR     48  42  77 CALM      30.31S
STAFFORD*      CLEAR     43  43 100 CALM      30.36R
WARRENTON      CLEAR     43  35  71 CALM      30.30S
CULPEPER*      CLEAR     46  37  72 CALM      30.32R
MANASSAS*      CLEAR     47  40  76 CALM      30.31R
LEESBURG*      CLEAR     52  43  71 SW3       30.31R
WINCHESTER     CLEAR     46  37  71 CALM      30.29R
FRONT ROYAL*   CLEAR     50  36  57 S3        30.28S
LURAY*         CLEAR     50  37  62 CALM      30.29S
$$

VAZ048-049-060>072-079>083-180100-
CENTRAL AND SOUTH CENTRAL VIRGINIA

CITY           SKY/WX    TMP DP  RH WIND       PRES   REMARKS
RICHMOND       CLEAR     50  41  71 CALM      30.33R
CHESTERFIELD*  NOT AVBL
PETERSBURG*    CLEAR     42  42 100 CALM      30.33R
HANOVER        CLEAR     46  41  82 CALM      30.34R
TAPPAHANNOCK*  CLEAR     46  34  61 CALM      30.33R
QUINTON*       FAIR      48  44  85 CALM      30.33R
CHARLOTTSVILLE CLEAR     55  38  52 SE3       30.31R
GORDONSVILLE*  CLEAR     46  41  83 CALM      30.31R
ORANGE*        CLEAR     45  39  81 CALM      30.31R
LOUISA*        CLEAR     39  37  93 CALM      30.31R
BUMPASS*       FAIR      45  42  90 CALM      30.32R
FARMVILLE*     CLEAR     48  38  69 CALM      30.31R
CREWE*         FAIR      45  43  95 CALM      30.32R
FORT PICKETT*  FAIR      48  39  69 CALM      30.32S
CHASE CITY*    FAIR      47  38  71 CALM      30.32R
CLARKSVILLE*   FAIR      50  41  71 CALM      30.31R
SOUTH HILL*    CLEAR     46  41  83 CALM      30.37S
LAWRENCEVILLE* FAIR      48  39  71 CALM      30.31S
EMPORIA*       CLEAR     45  37  76 NW3       30.33S
$$

VAZ088>098-180100-
SOUTHEAST VIRGINIA

CITY           SKY/WX    TMP DP  RH WIND       PRES   REMARKS
NORFOLK        CLEAR     54  47  77 CALM      30.32R
VIRGINIA BEACH PTCLDY    49  42  77 NW5       30.31R
NORFOLK NAVAL  PTCLDY    50  44  80 NE3       30.33S
WEST POINT*    CLEAR     47  43  87 CALM      30.34S
SALUDA*        FAIR      48  44  88 CALM      30.33R
NEWPORT NEWS   CLEAR     47  44  90 N3        30.33R
LANGLEY AFB    CLEAR     47  44  87 CALM      30.32R
FORT EUSTIS    CLEAR     49  43  80 CALM      30.30R
WILLIAMSBURG*  CLEAR     50  46  87 CALM      30.34R
HR EXEC AP*    NOT AVBL
FRANKLIN*      CLEAR     47  43  86 CALM      30.33R
US460-WAKEFLD  CLEAR     47  46  97 CALM      30.32S
$$

VAZ020-022-025-037-045-180100-
WEST CENTRAL AND SOUTHWEST VIRGINIA

CITY           SKY/WX    TMP DP  RH WIND       PRES   REMARKS
STAUNTON*      CLEAR     50  36  58 CALM      30.31R
WAYNESBORO*    CLEAR     48  37  64 CALM      30.31R
HOT SPRINGS VA CLEAR     48  31  52 CALM      30.32R
LYNCHBURG      CLEAR     48  39  71 CALM      30.31R
DANVILLE       CLEAR     46  43  89 CALM      30.32R
SOUTH BOSTON*  FAIR      47  40  75 CALM      30.32R
MARTINSVILLE   CLEAR     46  42  89 CALM      30.35R
ROANOKE        CLEAR     55  38  52 CALM      30.33R
BLACKSBURG     CLEAR     52  38  58 SE5       30.34R
DUBLIN*        CLEAR     54  37  52 CALM      30.32R
MARION*        CLEAR     50  39  67 CALM      30.34R
HILLSVILLE*    CLEAR     51  33  50 CALM      30.31R
RICHLANDS*     FAIR      55  33  44 CALM      30.32R
WISE*          CLEAR     54  36  50 CALM      30.32R
ABINGDON*      CLEAR     53  42  66 CALM      30.30R
$$

MDZ021>025-VAZ099-100-180100-
SOUTHERN MARYLAND AND THE DELMARVA PENINSULA

CITY           SKY/WX    TMP DP  RH WIND       PRES   REMARKS
PATUXENT RIVER PTCLDY    45  42  89 SW3       30.32R
BAY BRIDGE APT CLEAR     48  41  76 SE3       30.31S
LEONARDTOWN    NOT AVBL
DOVER          CLEAR     48  39  71 S3        30.30R
GEORGETOWN     CLEAR     46  40  79 CALM      30.33R
EASTON         CLEAR     48  41  76 CALM      30.35R
CAMBRIDGE      CLEAR     46  43  87 CALM      30.32S
SALISBURY      CLEAR     47  44  90 CALM      30.33R
OCEAN CITY     CLEAR     44  43  96 CALM      30.33R
WALLOPS ISLAND CLEAR     48  45  89 CALM      30.33R
ACCOMACK*      CLEAR     46  45  95 CALM      30.33R
$$

NCZ012>017-030>032-180100-
NORTH CENTRAL AND EASTERN NORTH CAROLINA

CITY           SKY/WX    TMP DP  RH WIND       PRES   REMARKS
ROANOKE RAPIDS FAIR      46  43  87 CALM      30.31R
RALEIGH        PTCLDY    50  42  74 CALM      30.31R
ELIZABETH CITY CLEAR     55  45  68 N12       30.31R
AHOSKIE*       CLEAR     50  45  82 CALM      30.32R
EDENTON*       CLEAR     53  44  73 CALM      30.32R
CURRITUCK*     CLEAR     53  46  78 CALM      30.32R
KILL DEVIL HLS PTCLDY    58  44  60 NE6       30.28R
MANTEO         MOCLDY   N/A N/A N/A NE8       30.29S
CAPE HATTERAS  CLOUDY    61  50  67 NE8       30.26R
TARBORO*       NOT AVBL
GOLDSBORO      CLEAR     52  45  76 N5        30.28R
WASHINGTON     CLEAR     53  44  69 NE3       30.31R
GREENVILLE     CLEAR     50  45  81 CALM      30.31R
NEW BERN       CLEAR     54  45  71 E5        30.31R
WILMINGTON     CLEAR     53  46  77 E3        30.28R
$$

VAZ048-180100-
ELSEWHERE

CITY           SKY/WX    TMP DP  RH WIND       PRES   REMARKS
HARRISBURG PA  CLEAR     52  42  69 CALM      30.27R
BALTIMORE      CLEAR     51  41  68 S5        30.30R
ANNAPOLIS      CLEAR     53  45  74 CALM      30.30S
ANDREWS AFB    CLEAR     48  40  74 S5        30.30R
PHILADELPHIA   CLEAR     56  37  49 S7        30.30R
HENDERSON NC   CLEAR     46  38  74 CALM      30.31R
GREENSBORO     CLEAR     54  40  59 E3        30.30R
ROCKY MOUNT    CLEAR     49  46  90 CALM      30.31R
$$

VAZ100-180100-
MARINE

STATION/POSITION TIME  TEMP    WIND        PRES    WAVE   SWELL
                       AIR SEA DIR/SP/G            HT/PER HT/PER
                 (UTC) (F)     (DEG/KT/KT) (MB)    (FT/S) (FT/S)
BRANDYWINE LGT   2342   57     240/  3/  5 1026.8R
CAPE MAY NJ      2342   49 65  120/  3/  4 1026.1R
LEWES DE         2342   49 64  190/  4/  5 1026.5R
15NM E FENWICK I 2350   56 68   10/  4/  6 1027.1R   4/ 7   3/ 7
OCEAN-CITY-INLET 2342   55 67   80/  3/  4 1027.2R
WACHAPREAGUE VA  2342   50 65   CALM  /  1 1026.9R
THOMAS POINT MD  0000   58 68  200/  8/ 10   N/A
GOOSES REEF MD   2350   58     180/  2/  4 1025.2R
COVE POINT MD    2342   57     200/  2/  3 1027.4R
SOLOMONS ISLAND  2348           CALM  /  2 1026.5R
BISHOPS HEAD MD  2342   54 62  340/  5/  5 1027.0R
PINEY POINT MD   2336           90/  3/  4   N/A
POTOMAC MD       2350   58     340/  4/  6 1026.4R
CAMBRIDGE MD     2342   52 67              1027.4R
LEWISETTA VA     2342   54 65  230/  4/  4 1026.9R
RAPPAHANNOCK LGT 2336           20/  5/  7 1027.5R
STINGRAY PT      2350   58      70/  4/  6 1027.2R
YORK RVR RNG VA  2336   57      50/  8/ 10 1027.3R
YORKTOWN VA      2336   56 71   60/  8/ 10 1026.5R
JAMESTOWN VA     2350           80/  4/  6   N/A
DOMINION TERM VA 2336   56      30/  1/  3 1026.9S
KIPTOPEKE VA     2336      69   40/  5/  6   N/A
CAPE HENRY VA    2336   57      70/  7/  9   N/A
WILLOUBY STN VA  2336   57     360/  7/  8 1026.6R
S CRANEY ISL VA  2336   57      30/  6/  7 1026.4R
CAPE HENRY BUOY  2330      70                N/A     4/ 7   2/11
1ST LANDING BUOY 2350   57                 1026.7R
CAPE CHARLES BUO 2351      70                N/A     3/ 5   2/11
64NM E OF VA BCH 2350   60 67   20/ 14/ 17 1025.7R   5/ 7   3/ 7
DUCK PIER NC     2336   60 68   40/ 17/ 20 1025.4R
44100 DUCK FRF   2335      71                N/A     5/ 8   2/11
44056 DUCK FRF   2330      71                N/A     5/ 7   2/11
OREGON INLET NC  2336   60 66   10/ 10/ 16 1025.2R
HATTERAS NC      2336   62 68   30/ 16/ 20 1024.5R
DIAMOND SHLS NC  2350   65 81   20/ 17/ 23 1023.7R   7/ 9   3/ 9
CAPE LOOKOUT NC  0000   60      10/ 13/ 15 1024.6R
$$



USA.gov is the U.S. government's official web portal to all federal, state and local government web resources and services.